Regional Weather Roundup
Issued by NWS Albany, NY

Home | Current Version | Previous Version | Graphics & Text | Print | Product List | Glossary Off
Versions: 1 2 3 4 5 6 7 8 9 10 11 12 13 14 15 16 17 18 19 20 21 22 23 24 25 26 27 28 29 30 31 32 33 34 35 36 37 38 39 40 41 42 43 44 45 46 47 48 49 50

000
ASUS41 KALY 221510
RWRALY

NEW YORK STATE HOURLY WEATHER ROUNDUP
NATIONAL WEATHER SERVICE ALBANY NY
1100 AM EDT TUE JUL 22 2014

NOTE: "FAIR" INDICATES FEW OR NO CLOUDS BELOW 12,000 FEET WITH NO
SIGNIFICANT WEATHER AND/OR NO OBSTRUCTIONS TO VISIBILITY.

NYZ032-033-038>043-046>054-057>066-NYZ062>081-221600-
EAST


CITY           SKY/WX    TMP DP  RH WIND       PRES   REMARKS
ALBANY         MOSUNNY   81  67  62 CALM      30.13S
GLENS FALLS    PTSUNNY   78  67  68 S5        30.12S
POUGHKEEPSIE   SUNNY     81  68  64 W7        30.13S
NEWBURGH       MOSUNNY   79  70  73 W8        30.17S
MONTGOMERY     MOSUNNY   83  69  62 SW9       30.14F
WHITE PLAINS   MOSUNNY   81  67  62 VRB3      30.16S
ISLIP          MOSUNNY   84  66  54 SW6       30.14S
NEW YORK CITY  MOSUNNY   83  65  54 SW6       30.14F
CENTRAL PARK   SUNNY     80  66  62 VRB3      30.18F
$$

NYZ005>009-017-018-044>046-055-056-221600-
CENTRAL


CITY           SKY/WX    TMP DP  RH WIND       PRES   REMARKS
FULTON         MOSUNNY   80  67  64 CALM      30.12F
SYRACUSE       PTSUNNY   83  67  58 N5        30.13R
ROME           CLOUDY    78  68  71 CALM      30.15S
ELMIRA         SUNNY     82  70  66 W8        30.15S
BINGHAMTON     CLOUDY    74  67  78 SW5       30.19S
MONTICELLO     PTSUNNY   75  68  78 NW5       30.20S
$$

NYZ026>034-041>043-221600-
NORTH


CITY           SKY/WX    TMP DP  RH WIND       PRES   REMARKS
WATERTOWN      SUNNY     80  62  54 SW7       30.10F
FORT DRUM      NOT AVBL
MASSENA        SUNNY     80  66  62 SW6       30.09F
SARANAC LAKE   PTSUNNY   74  61  63 W8        30.14F
PLATTSBURGH    MOSUNNY   79  68  69 SE12      30.08F
$$

NYZ001>004-010>016-019>021-221600-
WEST


CITY           SKY/WX    TMP DP  RH WIND       PRES   REMARKS
NIAGARA FALLS  SUNNY     79  57  46 VRB3      30.11F
BUFFALO        MOSUNNY   81  60  48 CALM      30.12F
DUNKIRK        SUNNY     79  68  69 N8        30.13R
JAMESTOWN      MOSUNNY   75  68  78 SW5       30.17S
WELLSVILLE     MOSUNNY   80  68  66 W5        30.21S
ROCHESTER      MOSUNNY   81  63  54 CALM      30.12F
PENN YAN       MOSUNNY   80  70  71 CALM      30.15S
$$

             KEY
       WCI = WIND CHILL INDEX
       VSB = VISIBILITY
       HX  = HEAT INDEX
$$



USA.gov is the U.S. government's official web portal to all federal, state and local government web resources and services.